Alexandria, MN

7:58 AM CST on December 15, 2019 (GMT -0600)
Chandler

Weather History for KAXN - October, 2019

Change the Weather History Date:

Thursday, October 3, 2019

  Actual Average Record
Temperature  
Mean Temperature 41 °F -  
Max Temperature 43 °F 60 °F 81 °F (1976)
Min Temperature 39 °F 41 °F 25 °F (1989)
Degree Days  
Heating Degree Days 24    
Moisture  
Dew Point 38 °F    
Average Humidity 87    
Maximum Humidity 96    
Minimum Humidity 76    
Precipitation  
Precipitation 0.00 in - - ()
Sea Level Pressure  
Sea Level Pressure 30.24 in    
Wind  
Wind Speed 9 mph ()    
Max Wind Speed 18 mph    
Max Gust Speed 26 mph    
Visibility 9.4 miles    
Events      
Averages and records for this station are not official NWS values.
T = Trace of Precipitation, MM = Missing Value Source: Averaged Metar Reports

Daily Weather History Graph

Daily Weather History Graph

Search for Another Location

Airport or City:

Astronomy

Oct. 03, 2019 Rise Set
Actual Time 7:22 AM CDT 6:58 PM CDT
Civil Twilight 6:52 AM CDT 7:27 PM CDT
Nautical Twilight 6:17 AM CDT 8:02 PM CDT
Astronomical Twilight 5:42 AM CDT 8:37 PM CDT
Moon 1:10 PM CDT (10/3) 10:21 PM CDT (10/3)
Length of Visible Light 12h 35m
Length of Day
11h 35m
Waxing Crescent, 30% of the Moon is Illuminated
Oct 3
Waxing Crescent
Oct 5
First Quarter
Oct 13
Full
Oct 21
Last Quarter
Oct 27
New

Hourly Weather History & Observations

Time (CDT) Temp. Windchill Dew Point Humidity Pressure Visibility Wind Dir Wind Speed Gust Speed Precip Events Conditions
12:53 AM 42.1 °F 37.7 °F 41.0 °F 96% 30.08 in 6.0 mi NNE 6.9 mph - N/A   Overcast
1:53 AM 42.1 °F 38.4 °F 41.0 °F 96% 30.09 in 5.0 mi North 5.8 mph - N/A   Overcast
2:53 AM 42.1 °F 37.7 °F 41.0 °F 96% 30.11 in 10.0 mi NW 6.9 mph - N/A   Overcast
3:41 AM 42.1 °F 37.1 °F 39.9 °F 92% 30.08 in 4.0 mi NNW 8.1 mph - N/A   Overcast
3:53 AM 41.0 °F 35.8 °F 39.9 °F 96% 30.12 in 4.0 mi NNW 8.1 mph - N/A   Overcast
4:53 AM 42.1 °F 37.7 °F 39.9 °F 92% 30.13 in 10.0 mi NW 6.9 mph - N/A   Overcast
5:53 AM 42.1 °F 37.1 °F 39.9 °F 92% 30.14 in 10.0 mi WNW 8.1 mph - N/A   Overcast
6:45 AM 41.0 °F 33.9 °F 39.0 °F 93% 30.12 in 10.0 mi WNW 12.7 mph - N/A   Overcast
6:53 AM 41.0 °F 34.7 °F 39.0 °F 93% 30.16 in 10.0 mi WNW 10.4 mph - N/A   Overcast
7:13 AM 41.0 °F 32.8 °F 37.9 °F 89% 30.13 in 10.0 mi WNW 16.1 mph 26.5 mph N/A   Overcast
7:20 AM 41.0 °F 33.5 °F 37.9 °F 89% 30.13 in 10.0 mi NW 13.8 mph 26.5 mph N/A   Overcast
7:53 AM 39.9 °F 31.8 °F 37.0 °F 89% 30.18 in 10.0 mi NW 15.0 mph 26.5 mph 0.00 in   Overcast
8:10 AM 39.9 °F 31.4 °F 37.0 °F 89% 30.16 in 10.0 mi NW 16.1 mph 26.5 mph N/A   Overcast
8:39 AM 39.0 °F 32.8 °F 36.0 °F 89% 30.17 in 10.0 mi NW 9.2 mph 20.7 mph N/A   Overcast
8:53 AM 39.0 °F 29.6 °F 36.0 °F 89% 30.22 in 10.0 mi WNW 18.4 mph 24.2 mph N/A   Overcast
9:06 AM 39.0 °F 29.6 °F 36.0 °F 89% 30.18 in 10.0 mi WNW 18.4 mph 25.3 mph N/A   Overcast
9:53 AM 39.9 °F 32.9 °F 36.0 °F 86% 30.24 in 10.0 mi NW 11.5 mph 19.6 mph N/A   Overcast
10:53 AM 39.9 °F 32.1 °F 36.0 °F 86% 30.27 in 10.0 mi NW 13.8 mph 20.7 mph N/A   Overcast
11:53 AM 41.0 °F 34.7 °F 37.0 °F 86% 30.29 in 10.0 mi NW 10.4 mph - N/A   Overcast
12:53 PM 42.1 °F 37.1 °F 36.0 °F 79% 30.31 in 10.0 mi NW 8.1 mph - N/A   Overcast
1:02 PM 42.1 °F 36.6 °F 36.0 °F 79% 30.27 in 10.0 mi NW 9.2 mph - N/A   Overcast
1:45 PM 42.1 °F 35.2 °F 36.0 °F 79% 30.27 in 10.0 mi WNW 12.7 mph - N/A   Overcast
1:53 PM 42.1 °F 35.7 °F 36.0 °F 79% 30.32 in 10.0 mi NW 11.5 mph - N/A   Overcast
2:53 PM 42.1 °F 35.7 °F 36.0 °F 79% 30.32 in 10.0 mi NW 11.5 mph - N/A   Overcast
3:53 PM 43.0 °F 36.4 °F 36.0 °F 76% 30.34 in 10.0 mi WNW 12.7 mph - N/A   Overcast
4:53 PM 42.1 °F 36.1 °F 36.0 °F 79% 30.36 in 10.0 mi NW 10.4 mph - N/A   Overcast
5:53 PM 42.1 °F 37.1 °F 36.0 °F 79% 30.38 in 10.0 mi WNW 8.1 mph - N/A   Overcast
6:53 PM 42.1 °F 38.4 °F 37.0 °F 82% 30.39 in 10.0 mi NNW 5.8 mph - N/A   Overcast
7:53 PM 42.1 °F 39.2 °F 37.0 °F 82% 30.40 in 10.0 mi NNW 4.6 mph - N/A   Overcast
8:53 PM 42.1 °F 39.2 °F 37.9 °F 85% 30.41 in 10.0 mi NW 4.6 mph - N/A   Overcast
9:53 PM 42.1 °F 40.2 °F 37.9 °F 85% 30.43 in 10.0 mi WNW 3.5 mph - N/A   Overcast
10:53 PM 42.1 °F - 37.9 °F 85% 30.44 in 10.0 mi Calm Calm - N/A   Overcast
11:53 PM 42.1 °F 40.2 °F 37.9 °F 85% 30.44 in 10.0 mi NW 3.5 mph - N/A   Overcast